Location: Klein M�hlingen
(51.9472°N, 11.7453°E)
Time: 08:38:35
(UTC+00:00)

ISS - Pass Details

Date: 06 October 2021
Orbit: 417 x 423 km, 51.6° (Epoch: 17 October)

Event Time Altitude Azimuth Distance (km) Brightness Sun altitude
Rises 17:34:10 0° 279° (W) 2,365 2.3 -9.4°
Reaches altitude 10° 17:37:00 10° 253° (WSW) 1,498 0.3 -9.8°
Maximum altitude 17:38:50 14° 220° (SW) 1,272 -0.8 -10.1°
Drops below altitude 10° 17:40:41 10° 186° (S) 1,494 -0.9 -10.4°
Sets 17:43:30 0° 160° (SSE) 2,354 -0.2 -10.8°
